Voltar ao catálogo

KUIPER-00010

AtivoComunicaçõesLEO
NORAD 63726·PAYLOAD·🇺🇸 United States

Lançado Apr 28, 2025 de Cape Canaveral Space Force Station

Loading…

Próximas Passagens (próximas 24 horas)

TLE

AtualizadoSource: CelesTrak SupGP

Época: Sep 14, 2026, 21:53 UTC

1 63726C 25088C   26257.91186343  .00001900  00000+0  24874-3 0  2578
2 63726  51.9018 326.3801 0000442  85.5590 197.7353 14.79920826    19

Acompanhe KUIPER-00010 em tempo real com AllMySat

Download on the App Store